Williamtown, Australia

8:29 AM AEDT on December 19, 2017 (GMT +1100)
Williamtown Military

Weather History for YWLM - October, 2013

Change the Weather History Date:

Wednesday, October 30, 2013

  Actual Average Record
Temperature  
Mean Temperature 60 °F -  
Max Temperature 68 °F - - ()
Min Temperature 53 °F - - ()
Degree Days  
Heating Degree Days 4    
Growing Degree Days 10 (Base 50)    
Moisture  
Dew Point 52 °F    
Average Humidity 69    
Maximum Humidity 94    
Minimum Humidity 35    
Precipitation  
Precipitation 0.00 in - - ()
Sea Level Pressure  
Sea Level Pressure 30.06 in    
Wind  
Wind Speed 11 mph ()    
Max Wind Speed 18 mph    
Max Gust Speed -    
Visibility 6.8 miles    
Events Rain    
T = Trace of Precipitation, MM = Missing Value Source: Averaged Metar Reports

Daily Weather History Graph

Daily Weather History Graph

Search for Another Location

Airport or City:

Trip Planner

Search our weather history database for the weather conditions in past years. The results will help you decide how hot, cold, wet, or windy it might be!

Date:

Astronomy

Oct. 30, 2013 Rise Set
Actual Time 5:56 AM AEDT 7:17 PM AEDT
Civil Twilight 5:30 AM AEDT 7:43 PM AEDT
Nautical Twilight 4:59 AM AEDT 8:14 PM AEDT
Astronomical Twilight 4:27 AM AEDT 8:46 PM AEDT
Moon 2:59 AM AEDT (10/30) 2:59 PM AEDT (10/30)
Length of Visible Light 14h 12m
Length of Day
13h 20m
Waning Crescent, 22% of the Moon is Illuminated
Oct 30
Waning Crescent
Nov 3
New
Nov 10
First Quarter
Nov 18
Full
Nov 26
Last Quarter

Hourly Weather History & Observations

Time (AEDT) Temp. Dew Point Humidity Pressure Visibility Wind Dir Wind Speed Gust Speed Precip Events Conditions
12:00 AM 61 °F 54 °F 73% 29.99 in - South 12.7 mph - -   Overcast
12:00 AM 60.8 °F 55.4 °F 82% 29.98 in 6.2 mi South 12.7 mph - N/A   Mostly Cloudy
12:30 AM 60.8 °F 53.6 °F 77% 29.98 in 6.2 mi SSW 15.0 mph - N/A   Scattered Clouds
1:00 AM 62.6 °F 53.6 °F 72% 29.98 in 6.2 mi SSW 15.0 mph - N/A   Overcast
1:30 AM 60.8 °F 51.8 °F 72% 29.98 in 6.2 mi South 16.1 mph - N/A   Overcast
2:00 AM 62 °F 49 °F 53% 29.98 in - South 15.0 mph - -  
2:00 AM 60.8 °F 50.0 °F 68% 29.98 in 6.2 mi South 15.0 mph - N/A   Scattered Clouds
2:30 AM 60.8 °F 50.0 °F 68% 29.98 in 6.2 mi SSW 15.0 mph - N/A   Mostly Cloudy
3:00 AM 61 °F 51 °F 60% 29.99 in - South 11.5 mph - -   Overcast
3:00 AM 60.8 °F 50.0 °F 68% 29.98 in 6.2 mi South 11.5 mph - N/A   Mostly Cloudy
3:30 AM 59.0 °F 53.6 °F 82% 29.98 in 6.2 mi West 6.9 mph - N/A   Overcast
4:00 AM 59.0 °F 53.6 °F 82% 29.98 in 6.2 mi WSW 8.1 mph - N/A   Overcast
4:30 AM 57.2 °F 51.8 °F 82% 29.98 in 6.2 mi WSW 10.4 mph - N/A   Mostly Cloudy
5:00 AM 57 °F 53 °F 81% 30.02 in - West 10.4 mph - -  
5:00 AM 57.2 °F 53.6 °F 88% 30.01 in 6.2 mi West 10.4 mph - N/A   Mostly Cloudy
5:30 AM 57.2 °F 53.6 °F 88% 30.01 in 6.2 mi WSW 8.1 mph - N/A   Mostly Cloudy
6:00 AM 57 °F 54 °F 86% 30.04 in 9 mi West 6.9 mph - -   Mostly Cloudy
6:00 AM 57.2 °F 53.6 °F 88% 30.04 in 6.2 mi West 6.9 mph - N/A   Mostly Cloudy
6:30 AM 57.2 °F 53.6 °F 88% 30.04 in 3.7 mi SW 10.4 mph - N/A Rain Light Rain Showers
6:44 AM 57.2 °F 55.4 °F 94% 30.04 in 5.6 mi West 8.1 mph - N/A   Mostly Cloudy
7:00 AM 57.2 °F 53.6 °F 88% 30.04 in 5.6 mi West 9.2 mph - N/A Rain Light Rain Showers
7:30 AM 57.2 °F 53.6 °F 88% 30.06 in 5.0 mi North 2.3 mph - N/A Rain Light Rain Showers
8:00 AM 58 °F 55 °F 86% 30.08 in - West 4.6 mph - -  
8:00 AM 57.2 °F 55.4 °F 94% 30.06 in 5.6 mi West 4.6 mph - N/A Rain Light Rain Showers
8:30 AM 60.8 °F 55.4 °F 82% 30.06 in 6.2 mi West 8.1 mph - N/A   Partly Cloudy
9:00 AM 64 °F 53 °F 58% 30.10 in 16 mi SSW 10.4 mph - -   Haze
9:00 AM 64.4 °F 53.6 °F 68% 30.09 in 6.2 mi SSW 10.4 mph - N/A   Partly Cloudy
9:22 AM 64.4 °F 51.8 °F 64% 30.09 in 6.2 mi SSW 18.4 mph - N/A   Partly Cloudy
9:30 AM 64.4 °F 51.8 °F 64% 30.09 in 6.2 mi SSW 17.3 mph - N/A   Partly Cloudy
10:00 AM 66.2 °F 53.6 °F 64% 30.09 in 6.2 mi SSW 18.4 mph - N/A   Scattered Clouds
10:30 AM 64.4 °F 53.6 °F 68% 30.09 in 6.2 mi SSW 18.4 mph - N/A   Scattered Clouds
11:00 AM 67 °F 52 °F 49% 30.11 in - South 17.3 mph - -  
11:00 AM 68.0 °F 51.8 °F 56% 30.09 in 6.2 mi South 17.3 mph - N/A   Partly Cloudy
11:30 AM 66.2 °F 53.6 °F 64% 30.09 in 6.2 mi South 17.3 mph - N/A   Partly Cloudy
12:00 PM 65 °F 50 °F 49% 30.11 in 16 mi South 13.8 mph - -   Haze
12:00 PM 66.2 °F 50.0 °F 56% 30.09 in 6.2 mi South 13.8 mph - N/A   Scattered Clouds
12:30 PM 66.2 °F 48.2 °F 52% 30.09 in 6.2 mi South 15.0 mph - N/A   Scattered Clouds
1:00 PM 66.2 °F 48.2 °F 52% 30.09 in 6.2 mi South 15.0 mph - N/A   Mostly Cloudy
1:30 PM 68.0 °F 50.0 °F 52% 30.06 in 6.2 mi South 16.1 mph - N/A   Mostly Cloudy
2:00 PM 67 °F 46 °F 35% 30.09 in - South 13.8 mph - -  
2:00 PM 68.0 °F 46.4 °F 46% 30.06 in 6.2 mi South 13.8 mph - N/A   Mostly Cloudy
2:30 PM 68.0 °F 50.0 °F 52% 30.06 in 6.2 mi South 16.1 mph - N/A   Partly Cloudy
3:00 PM 68 °F 51 °F 43% 30.08 in 19 mi SSE 13.8 mph - -   Haze
3:00 PM 68.0 °F 50.0 °F 52% 30.06 in 6.2 mi SSE 13.8 mph - N/A   Partly Cloudy
3:30 PM 68.0 °F 51.8 °F 56% 30.06 in 6.2 mi SSE 15.0 mph - N/A   Partly Cloudy
4:00 PM 66.2 °F 51.8 °F 60% 30.06 in 6.2 mi SSE 15.0 mph - N/A   Partly Cloudy
4:30 PM 66.2 °F 50.0 °F 56% 30.06 in 6.2 mi SSE 16.1 mph - N/A   Partly Cloudy
5:00 PM 67 °F 49 °F 42% 30.07 in - SSE 13.8 mph - -  
5:00 PM 66.2 °F 50.0 °F 56% 30.06 in 6.2 mi SSE 13.8 mph - N/A   Partly Cloudy
5:30 PM 66.2 °F 50.0 °F 56% 30.06 in 6.2 mi SSE 12.7 mph - N/A   Partly Cloudy
6:00 PM 66 °F 50 °F 45% 30.08 in - SE 11.5 mph - -  
6:00 PM 66.2 °F 50.0 °F 56% 30.06 in - SE 11.5 mph - N/A   Clear
6:30 PM 64.4 °F 51.8 °F 64% 30.06 in 6.2 mi SE 9.2 mph - N/A   Partly Cloudy
7:00 PM 64.4 °F 51.8 °F 64% 30.06 in 6.2 mi ESE 8.1 mph - N/A   Partly Cloudy
7:30 PM 62.6 °F 51.8 °F 68% 30.09 in - East 8.1 mph - N/A   Clear
8:00 PM 60 °F 52 °F 69% 30.11 in - ENE 4.6 mph - -  
8:00 PM 60.8 °F 51.8 °F 72% 30.09 in - ENE 4.6 mph - N/A   Clear
8:30 PM 57.2 °F 53.6 °F 88% 30.09 in 6.2 mi ENE 4.6 mph - N/A   Unknown
9:00 PM 56 °F 52 °F 81% 30.13 in - NE 4.6 mph - -  
9:00 PM 57.2 °F 51.8 °F 82% 30.12 in 6.2 mi NE 4.6 mph - N/A   Unknown
9:30 PM 55.4 °F 51.8 °F 88% 30.12 in 6.2 mi NNE 2.3 mph - N/A   Unknown
10:00 PM 53.6 °F 51.8 °F 94% 30.12 in 6.2 mi Calm Calm - N/A   Unknown
10:30 PM 53.6 °F 51.8 °F 94% 30.12 in 6.2 mi Calm Calm - N/A   Unknown
11:00 PM 54 °F 51 °F 84% 30.13 in - NNE 4.6 mph - -  
11:00 PM 53.6 °F 50.0 °F 88% 30.12 in 6.2 mi NNE 4.6 mph - N/A   Unknown
11:30 PM 53.6 °F 50.0 °F 88% 30.12 in 6.2 mi NNE 4.6 mph - N/A   Unknown